Showing default

USA 164, 27168

Orbit data source: Space-Track

USA 164, 27168 is a payload satellite owned by USAF SMC (US) in GEO that was launched on Mon, 14 Jan 2002 UTC via a TITAN 401B/CENTAUR launch vehicle from the Air Force Eastern Test Range (AFETR). Payload-class satellites include a variety of spacecraft equipped with specific instruments for various scientific and technological missions. These include communications satellites like Starlink; space stations such as the ISS; scientific satellites like the Hubble; Earth observation satellites from companies like Planet Labs, Umbra, and HawkEye 360; GPS; miniature CubeSats for education and research; and military/defense satellites.

Not visible in the next 10 days
Identifier
27168, 2002-001A
Orbit
GEO
Country
Flag of USUS
Related business
Manufacturer
LMMS/Sunnyvale
Mission
Operational Defense Communications
Bus & Motor
MILSTAR, AOCS
Mass
4,500 kg wet, ~4,200 kg dry
Launch date (UTC)
2002-01-14 (24 years ago)
Launch vehicle
TITAN 401B/CENTAUR
Launch site
Air Force Eastern Test Range (AFETR)
Object type
Payload
Rocket body
Debris
Shape & HBR
Cyl + 1 Truss + 1 Ant, 17.5 m
Radar Cross Section
74.603 m²

Expand to show TLE details & history
Last TLE update: 12 hours ago

TLE from 12 hours ago
0 USA 164
1 27168U 02001A   25259.51613172  .00000084  00000-0  00000-0 0  9998
2 27168  10.8516  23.4826 0096860   5.7557 171.2239  1.00270076 30214
Epoch: 2025-09-16T12:23Z
TLE epoch observation values (Epoch: 2025-09-16T12:23:13.78Z)
Latitude
0.54518°
Longitude
19.16125°
Altitude
36,190.785 km
Speed
3.045 km/s
True Right ascension
13h 22m 41s
True Declination
0° 32' 41"
Sunlit
Object was in daylight at epoch
Visualization orbit readout
Latitude
Unknown
Longitude
Unknown
Altitude
Unknown
Speed
Unknown
Apparent Right ascension
Unknown
Apparent Declination
Unknown
Sunlit
N/A
Visualization observer readout
Local Sidereal Time
16:47:34
Azimuth
Unknown
Elevation
Unknown
Doppler factor
Unknown
Orbital elements
Apogee altitude
36,196.511 km
Perigee altitude
35,379.667 km
Semi-major axis
42,166.226 km
Eccentricity
0.00969
Inclination
10.8516°
RAAN
23.4826°
Arg. of periapsis
5.7557°
True anomaly
171.39124°
Mean anomaly
171.2239°
Eccentric anomaly
171.30777°
Mean motion
0.25067 °/min
Orbital period
1,436.17 mins
BSTAR
0
Loading maneuver chart data...
Computing Atmospheric mass density...
Loading historical data...
Loading historical data...
Loading historical data...
Loading historical data...
Loading historical data...
Loading historical data...
Loading historical data...
Other satellites on launch #1 in the year 2002 (2002-01-14 UTC)

Documentation

Showing up to 5 results
|